• MPC Preparation (Info)

  • MPEC 2000-S38 : 2000 SB8

    The following Minor Planet Electronic Circular may be linked-to from your own Web pages, but must not otherwise be redistributed electronically.

    A form allowing access to any MPEC is at the bottom of this page.


    Read MPEC 2000-S37 Read MPEC 2000-S39


    M.P.E.C. 2000-S38                                Issued 2000 Sept. 24, 21:13 UT
    
         The Minor Planet Electronic Circulars contain information on unusual
             minor planets and routine data on comets.  They are published
       on behalf of Commission 20 of the International Astronomical Union by the
              Minor Planet Center, Smithsonian Astrophysical Observatory,
                              Cambridge, MA 02138, U.S.A.
    
                 Prepared using the Tamkin Foundation Computer Network
    
                                  MPC@CFA.HARVARD.EDU
              URL http://cfa-www.harvard.edu/iau/mpc.html  ISSN 1523-6714
    
                                       2000 SB8
    
    Observations:
         K00S08B* C2000 09 20.33904 02 14 07.29 -21 27 48.8          17.6        704
         K00S08B  C2000 09 20.35438 02 14 07.90 -21 27 10.5          17.3        704
         K00S08B  C2000 09 20.36913 02 14 08.52 -21 26 33.2          17.6        704
         K00S08B  C2000 09 20.38426 02 14 09.14 -21 25 55.6          17.3        704
         K00S08B  C2000 09 20.39907 02 14 09.67 -21 25 18.4          18.4        704
         K00S08B  C2000 09 21.24065 02 14 55.40 -20 49 02.7          16.9 V      860
         K00S08B  C2000 09 21.25294 02 14 55.94 -20 48 31.2          16.5 V      860
         K00S08B  C2000 09 21.25804 02 14 56.13 -20 48 19.4                      860
         K00S08B  C2000 09 21.30988 02 15 00.55 -20 46 36.9          17.3 R      853
         K00S08B  C2000 09 21.31074 02 14 57.89 -20 46 00.5          16.9 V      860
         K00S08B  C2000 09 21.31102 02 15 00.59 -20 46 34.1          17.3 R      853
         K00S08B  C2000 09 21.31207 02 15 00.65 -20 46 31.5          17.1 R      853
         K00S08B  C2000 09 21.31584 02 14 58.24 -20 45 48.6          17.5 V      860
         K00S08B  C2000 09 21.31858 02 14 58.38 -20 45 42.8          18.3 V      860
         K00S08B  C2000 09 22.22685 02 15 45.81 -20 06 30.5                      808
         K00S08B dC2000 09 22.24988 02 15 46.52 -20 05 30.6                      808
         K00S08B  C2000 09 22.25634 02 15 45.87 -20 05 20.1          17.3 V      860
         K00S08B  C2000 09 22.26146 02 15 46.10 -20 05 08.0          17.2 V      860
         K00S08B  C2000 09 22.26660 02 15 46.25 -20 04 53.6          17.3 V      860
         K00S08B  C2000 09 22.65582 02 16 05.18 -19 47 54.5          17.7 R      428
         K00S08B  C2000 09 22.68065 02 16 05.99 -19 46 49.4          17.9 R      428
         K00S08B  C2000 09 22.96712 02 16 20.23 -19 34 59.0          17.7 V      151
         K00S08B  C2000 09 22.96912 02 16 20.27 -19 34 55.1          17.4 V      151
         K00S08B  C2000 09 22.97140 02 16 20.36 -19 34 48.0          17.2 V      151
         K00S08B  C2000 09 22.97299 02 16 20.40 -19 34 47.2          17.2 V      151
         K00S08B  C2000 09 22.97449 02 16 20.39 -19 34 39.6          17.8 V      151
         K00S08B  C2000 09 22.97623 02 16 20.49 -19 34 34.9          17.9 V      151
         K00S08B tC2000 09 23.23623 02 16 31.62 -19 22 24.2                      808
         K00S08B tC2000 09 23.24317 02 16 31.74 -19 22 05.8                      808
         K00S08B tC2000 09 23.26609 02 16 32.48 -19 21 08.4                      808
         K00S08B  C2000 09 23.32183 02 16 35.47 -19 19 19.8          17.4        704
         K00S08B  C2000 09 23.32193 02 16 35.51 -19 19 19.3          17.1        704
         K00S08B  C2000 09 23.33625 02 16 35.93 -19 18 42.4          17.3        704
         K00S08B  C2000 09 23.33755 02 16 35.94 -19 18 38.3          17.0        704
         K00S08B  C2000 09 23.35074 02 16 36.31 -19 18 03.0          18.7        704
         K00S08B  C2000 09 23.36515 02 16 36.74 -19 17 25.7          18.7        704
         K00S08B  C2000 09 23.36676 02 16 36.74 -19 17 21.8          16.7        704
         K00S08B  C2000 09 23.37955 02 16 37.09 -19 16 48.3          17.8        704
         K00S08B  C2000 09 23.38276 02 16 37.19 -19 16 39.6          17.1        704
         K00S08B dC2000 09 24.24838 02 17 12.67 -18 37 35.3                      808
         K00S08B dC2000 09 24.25660 02 17 12.92 -18 37 13.3                      808
         K00S08B  C2000 09 24.28938 02 17 12.58 -18 35 52.5          18.5 V      860
         K00S08B  C2000 09 24.29207 02 17 12.68 -18 35 45.9          18.1 V      860
         K00S08B  C2000 09 24.29476 02 17 12.76 -18 35 38.3          18.1 V      860
         K00S08B  C2000 09 24.29745 02 17 12.80 -18 35 29.9          18.2 V      860
    
    Observer details:
    151 Eschenberg Observatory, Winterthur.  Observer M. Griesser.  0.40-m f/5.8
        Hypergraph.
    428 Reedy Creek.  Observer J. Broughton.  0.25-m f/6.3 Schmidt-Cassegrain
        + CCD.
    704 Lincoln Laboratory ETS, New Mexico.  Observers M. Blythe, F. Shelly,
        M. Bezpalko, M. Elowitz, R. Huber, L. Manguso.  Measurers J. Stuart,
        R. Sayer, J. B. Evans, H. Viggh.  1.0-m f/2.15 reflector + CCD.
    808 El Leoncito.  Observers C. E. Lopez, H. S. Lepez.  0.5-m f/7.5 double
        astrograph + CCD.
    853 Biosphere 2 Observatory.  Observer G. J. Garradd.  0.5-m f/8.1 reflector
        + CCD.
    860 Valinhos.  Observer P. R. Holvorcem.  0.36-m f/3.6 Schmidt-Cassegrain
        + CCD.
    
    Orbital elements:
    2000 SB8
    Epoch 2000 Sept. 13.0 TT = JDT 2451800.5                Spahr
    M 359.76542              (2000.0)            P               Q
    n   0.28846676     Peri.  312.06200     +0.99044858     +0.09046504
    a   2.2685005      Node    43.05500     -0.02726991     +0.86828738
    e   0.4796312      Incl.    8.76711     -0.13515903     +0.48774286
    P   3.42           H   19.2           G   0.15
    From 45 observations 2000 Sept. 20-24.
    
    Ephemeris:
    2000 SB8                 a,e,i = 2.27, 0.48, 9                   q = 1.1805
    Date    TT    R. A. (2000) Decl.     Delta      r     Elong.  Phase     V
    2000 09 23    02 16.34   -19 33.0    0.222    1.185   141.5    31.9    17.6
    2000 10 03    02 20.14   -11 49.7    0.223    1.199   149.9    24.8    17.5
    2000 10 13    02 18.37   -03 48.7    0.236    1.223   160.1    16.1    17.4
    2000 10 23    02 13.68   +03 35.5    0.263    1.255   170.4     7.6    17.3
    2000 11 02    02 08.85   +09 43.9    0.304    1.294   172.8     5.5    17.6
    2000 11 12    02 06.25   +14 27.0    0.360    1.340   164.4    11.5    18.3
    2000 11 22    02 06.98   +17 56.3    0.430    1.390   155.3    17.3    19.0
    2000 12 02    02 11.30   +20 30.8    0.515    1.445   146.8    21.9    19.6
    2000 12 12    02 18.99   +22 28.8    0.613    1.502   139.0    25.5    20.2
    2000 12 22    02 29.48   +24 02.5    0.724    1.562   131.7    28.1    20.7
    2001 01 01    02 42.29   +25 20.3    0.847    1.623   124.8    29.8    21.2
    2001 01 11    02 56.95   +26 27.3    0.980    1.685   118.2    30.9    21.6
    2001 01 21    03 13.06   +27 25.7    1.122    1.747   111.9    31.5    22.0
    
    Timothy B. Spahr             (C) Copyright 2000 MPC           M.P.E.C. 2000-S38
    

    Read MPEC 2000-S37 Read MPEC 2000-S39


    MPEC number:

    Enter an MPEC number in one of the following forms:

    • 1997-B01 (the full form)
    • J97B01 (the packed version of the full form)
    • B01 (the abbreviated form)